Location: Kott?ru
(16.6209°N, 80.6208°E)
Time: 21:02:11
(UTC+00:00)

GPS 2-15 Rocket1 - Pass Details

Date: 18 September 2020
Orbit: 624 x 675 km, 19.8° (Epoch: 28 October)

Event Time Altitude Azimuth Distance (km) Brightness Sun altitude
Exits shadow 22:34:23 51° 39° (NE) 785 3.7 -27.4°
Drops below altitude 10° 22:38:11 10° 77° (ENE) 1,981 6.7 -26.6°
Sets 22:40:33 0° 81° (E) 2,884 7.8 -26.0°
